Temperature
18 18 17 19 19 20 19 19 18 19 20 19 18 18 19 20 20 19 19 17 16 14 14 13 14 14 15 15 14 14 14 14 13 12 12 11 11 10 10 10 9 9 9 8
18 17 19 20 20 19 18 18 18 19 20 19 18 18 19 19 19 19 18 17 15 14 13 13 13 14 14 14 14 14 14 13 13 12 12 11 11 10 10 9 9 9 9 9
18 19 19 19 19 18 18 17 18 18 19 18 17 16 18 18 18 18 18 17 15 14 13 13 13 13 14 14 14 14 13 13 13 12 12 11 10 10 9 9 9 9 9 9
18 19 19 18 18 18 17 19 18 18 17 16 18 16 18 16 16 16 17 17 15 14 13 13 13 13 13 13 13 13 13 13 12 12 12 11 10 10 9 9 9 8 8 8
18 19 18 17 18 18 18 17 18 17 16 16 17 16 17 16 15 15 16 16 15 14 13 12 13 13 13 13 13 13 13 12 12 12 11 11 10 10 9 9 8 8 8 7
18 19 18 18 18 18 18 17 17 16 15 14 17 16 17 16 16 15 16 16 15 14 13 12 12 13 13 13 12 12 12 12 12 11 11 10 10 9 9 8 8 8 7 7
17 18 18 18 16 16 16 16 15 15 14 14 18 18 18 19 18 17 16 16 15 14 13 12 12 12 12 12 12 12 12 11 11 11 10 10 9 9 8 8 7 7 7 6
16 16 17 17 16 15 15 16 15 16 16 17 17 17 18 18 18 18 17 16 15 14 13 12 12 12 12 12 11 11 11 11 11 10 10 9 9 8 8 7 7 7 6 6
17 17 18 17 17 17 16 15 17 16 16 16 17 18 16 17 17 17 17 16 15 14 13 12 12 11 11 11 11 11 11 10 10 10 9 9 8 8 7 7 7 6 6 6
17 17 16 15 16 16 16 17 16 15 15 15 18 18 17 15 15 16 16 16 15 14 13 12 12 11 11 11 11 10 10 10 9 9 9 8 8 7 7 6 6 6 5 5
17 16 15 14 14 15 15 15 16 16 16 15 16 17 18 16 16 15 15 16 16 15 14 13 12 11 10 10 10 10 9 9 9 8 8 7 7 7 6 6 5 5 5 5
17 16 15 15 16 16 16 16 16 15 16 16 15 16 17 17 16 16 16 17 16 15 14 13 11 11 10 9 9 9 9 8 8 8 7 7 6 6 6 5 5 5 4 4
16 16 15 15 14 14 15 16 16 16 16 15 15 16 16 16 16 17 16 16 15 14 13 12 11 10 9 9 9 8 8 8 7 7 7 6 6 5 5 5 4 4 4 4
16 15 15 16 16 14 14 15 16 15 14 15 15 17 15 16 15 15 15 15 14 13 12 11 10 10 9 9 8 8 7 7 7 6 6 6 5 5 5 4 4 4 4 3
15 15 16 16 17 17 16 16 15 15 15 15 16 17 17 16 15 15 15 14 13 12 11 10 10 9 8 8 7 7 7 7 6 6 6 5 5 5 4 4 4 3 3 3
14 14 15 15 16 16 15 16 16 15 15 15 15 16 17 17 16 15 14 13 12 11 10 10 9 8 8 7 7 7 6 6 6 5 5 5 4 4 4 3 3 3 2 2
13 14 14 14 15 14 13 14 15 15 15 15 15 15 16 15 14 14 13 13 12 10 9 9 8 8 7 7 7 6 6 5 5 5 5 4 4 3 3 3 2 2 2 1
14 13 13 13 13 11 14 16 16 16 16 15 15 15 14 14 13 13 13 12 11 10 9 8 7 7 7 6 6 6 5 5 5 4 4 3 3 3 2 2 2 1 1 0
13 13 13 11 11 12 15 15 14 14 14 15 15 15 13 12 11 11 11 11 10 9 8 7 7 7 6 6 5 5 5 4 4 4 3 3 2 2 2 1 1 1 0 -0
11 12 12 11 11 11 14 13 14 14 12 14 14 13 10 10 8 8 10 9 9 8 7 7 6 6 6 5 5 4 4 4 3 3 3 2 2 2 1 1 0 -0 -0 -1
9 10 10 10 10 11 13 12 13 12 12 12 12 12 10 9 9 9 9 8 8 7 7 6 6 5 5 4 4 4 4 3 3 2 2 2 2 1 1 0 -0 -1 -1 -2
10 10 10 10 10 10 10 11 11 11 11 11 11 11 10 9 9 8 7 7 6 6 6 5 5 5 4 4 4 3 3 3 2 2 2 1 1 0 -0 -1 -1 -1 -2 -2
12 12 12 12 11 12 12 11 11 11 11 11 10 10 9 8 7 7 6 6 6 5 5 5 4 4 4 4 3 3 2 2 2 1 1 1 0 -0 -1 -1 -2 -2 -2 -3
12 12 12 12 11 11 11 11 11 10 10 10 10 9 9 8 7 6 6 5 5 5 4 4 4 4 3 3 3 2 2 1 1 0 0 -0 -1 -1 -1 -2 -2 -3 -3 -4
12 10 10 11 11 10 10 10 10 9 9 9 8 8 8 7 6 6 5 5 4 4 4 3 3 3 3 2 2 2 1 1 0 -0 -1 -1 -1 -2 -2 -2 -3 -3 -4 -4
10 10 10 10 10 9 9 10 9 8 8 8 7 7 6 6 6 5 5 4 4 3 3 3 3 2 2 2 1 1 1 -0 -1 -1 -1 -1 -2 -2 -3 -3 -3 -4 -4 -5
Wind_Speed
8 6 8 9 10 8 8 9 11 9 1 3 8 10 9 7 7 7 7 9 10 10 8 8 9 9 9 9 9 8 7 6 5 4 3 3 2 1 1 1 2 4 5 6
8 11 12 9 5 4 7 9 11 9 2 2 7 11 10 7 7 8 9 11 12 10 9 8 9 8 8 9 8 8 8 7 6 4 3 3 2 2 1 1 1 3 4 5
14 6 2 4 6 6 9 10 10 9 6 6 7 9 9 6 5 5 8 11 12 12 11 9 9 9 8 8 8 8 8 8 7 5 4 3 2 1 1 0 0 2 3 4
12 10 6 5 7 7 9 6 6 6 5 6 6 5 4 9 8 8 9 11 12 11 11 10 10 9 8 7 7 8 8 8 6 5 4 3 2 1 1 1 1 1 2 2
8 7 7 8 9 8 4 3 4 6 7 8 8 7 6 12 10 11 11 11 12 11 11 10 10 9 8 7 7 7 8 7 6 5 5 4 3 2 2 2 2 2 1 1
11 4 7 5 1 2 3 1 5 5 4 7 11 10 6 10 14 16 14 12 13 12 11 10 9 9 8 6 6 7 8 7 6 5 5 5 4 3 3 3 3 2 2 1
10 10 6 4 4 2 4 4 4 5 5 8 6 6 6 6 11 16 17 15 14 12 12 11 10 9 9 8 6 6 7 6 5 5 4 4 3 2 2 2 2 3 2 2
10 10 14 10 9 7 9 8 6 4 4 1 2 6 2 6 5 12 16 15 14 13 12 11 11 10 9 9 7 6 7 6 5 4 3 3 3 2 1 2 2 3 2 3
7 5 3 7 7 6 7 9 7 6 7 5 6 5 4 4 4 6 13 15 15 14 13 12 11 10 10 9 7 6 6 6 4 3 3 2 2 2 2 2 3 3 3 3
7 3 5 4 2 5 5 3 5 5 4 5 7 8 7 8 8 8 11 14 14 13 13 12 11 10 9 8 7 6 6 5 4 3 2 1 1 1 2 3 4 4 5 4
9 5 6 5 9 10 8 5 5 5 5 3 4 2 3 9 10 11 10 12 13 13 13 12 10 10 9 8 7 6 5 5 3 2 1 1 1 2 3 4 5 5 5 6
9 5 6 7 4 2 9 10 9 5 6 5 3 3 3 7 7 8 9 9 10 11 11 11 10 10 9 8 7 6 5 4 3 2 1 2 2 3 4 5 6 6 6 7
9 6 5 4 2 4 6 9 10 8 5 5 5 4 1 4 6 7 8 9 9 10 11 10 9 9 8 7 6 6 5 4 3 1 1 3 3 4 5 5 6 6 7 8
5 5 7 6 1 7 7 10 10 8 6 7 9 7 6 8 8 9 9 9 9 10 10 9 9 8 8 7 6 5 4 3 2 0 2 3 4 4 5 6 7 7 8 9
3 5 8 7 0 2 6 9 12 12 12 9 9 10 6 5 7 8 9 10 10 10 9 9 8 7 7 6 5 5 3 2 1 1 3 4 4 5 6 6 7 8 9 10
4 4 5 6 3 3 6 7 10 12 12 13 13 14 6 1 5 7 8 10 11 10 10 9 8 8 7 6 5 4 2 2 1 3 4 5 5 6 6 7 8 9 9 10
7 5 3 4 4 1 7 10 12 11 10 9 12 10 1 2 5 6 7 9 10 10 10 9 8 7 6 6 4 3 1 1 2 4 5 6 6 6 7 8 9 9 10 10
7 6 3 3 3 8 7 2 6 10 11 11 9 5 4 5 5 4 5 8 10 10 9 8 7 7 5 4 3 2 1 2 4 5 6 6 6 7 8 8 9 10 9 10
1 5 4 4 5 8 6 5 5 6 6 6 6 2 7 9 6 3 4 7 9 9 9 8 7 6 5 3 3 1 2 4 5 6 6 6 6 7 8 9 10 10 9 10
2 2 3 4 5 7 3 2 3 4 5 2 3 5 9 8 4 4 7 10 10 10 8 7 5 4 3 2 2 1 4 5 6 7 6 6 7 8 9 10 10 9 9 11
5 4 6 7 7 7 3 5 5 5 5 2 3 6 8 6 4 7 10 10 9 9 8 6 5 3 2 1 1 3 5 6 7 7 7 7 8 9 10 10 9 10 10 11
10 9 8 7 8 9 7 7 7 4 4 3 4 6 8 8 9 9 9 9 8 7 6 5 3 2 1 1 2 5 7 7 7 7 8 8 9 9 9 10 10 10 10 10
9 9 6 8 7 2 8 6 4 4 5 4 5 7 10 9 8 8 8 7 6 6 5 3 2 2 2 3 4 6 7 7 7 8 9 9 9 9 9 9 10 9 9 9
6 3 2 2 4 6 6 5 4 4 5 6 7 9 9 9 9 8 7 6 5 4 3 2 1 3 4 5 5 6 7 7 8 9 9 9 9 9 9 8 8 8 8 9
5 6 4 4 3 6 5 5 6 6 7 8 8 8 8 9 8 7 6 5 4 3 2 2 2 4 6 6 7 7 7 7 8 9 9 9 9 9 9 9 8 10 9 11
4 6 6 4 3 5 4 6 7 8 7 9 9 7 7 7 7 6 5 4 3 2 1 2 4 5 6 7 8 8 8 8 9 9 9 8 8 8 8 10 11 14 16 23
Wind_Direction
191 222 234 241 238 262 307 312 302 302 286 207 251 263 256 225 195 184 168 142 124 116 111 103 98 92 87 88 97 104 109 110 108 105 113 120 140 157 155 182 228 244 242 245
217 226 244 259 290 322 297 285 283 287 249 206 264 268 255 221 190 180 165 145 134 130 123 114 104 98 96 96 99 103 104 102 97 100 102 104 107 105 105 144 212 248 250 246
231 226 199 232 246 254 259 258 269 283 312 258 257 277 237 176 152 162 156 144 140 143 137 127 111 100 94 93 98 101 99 96 95 98 94 83 72 55 77 265 238 252 252 253
237 235 202 223 246 244 262 275 284 291 294 277 222 274 217 162 163 174 164 149 145 140 135 131 123 113 106 102 100 101 101 99 99 99 96 104 104 100 126 129 186 247 225 231
226 197 191 224 241 244 250 29 312 280 269 274 263 256 248 157 178 186 178 161 148 143 139 134 128 125 117 112 110 111 106 103 100 97 96 86 68 48 41 28 23 349 314 206
247 208 189 214 199 286 113 203 257 254 255 259 236 223 251 184 192 181 179 166 153 148 142 136 131 127 123 122 119 119 113 110 104 98 94 87 72 40 28 16 9 344 329 318
237 230 196 152 145 165 175 204 239 216 216 241 220 206 252 166 174 175 174 167 158 153 150 149 150 146 143 142 138 129 121 115 105 94 87 91 84 50 37 19 355 337 329 325
220 228 200 185 195 185 196 212 227 251 244 238 180 226 237 84 106 158 163 161 159 161 161 160 160 154 150 150 147 134 124 115 104 96 84 83 84 65 28 6 334 315 304 297
225 217 133 161 190 214 203 215 244 295 302 286 247 199 116 97 92 146 158 162 167 168 164 162 159 155 153 153 149 138 129 119 110 100 82 58 50 41 357 327 312 298 290 288
250 236 136 91 106 243 269 262 191 208 236 255 255 228 191 175 183 181 175 173 172 167 163 161 160 156 152 148 141 131 127 126 120 104 92 69 357 349 325 307 296 292 293 294
224 239 147 159 201 199 194 232 228 221 246 255 285 317 36 156 169 178 185 178 172 169 166 162 157 152 146 145 147 143 135 124 114 96 71 3 325 324 314 300 294 295 295 296
198 232 219 193 182 206 200 206 210 222 233 216 248 280 39 97 133 158 173 171 167 163 158 153 150 147 147 151 149 144 137 125 119 99 16 317 310 305 299 295 298 303 303 301
177 208 219 175 188 211 221 220 224 244 278 259 240 236 126 125 137 151 158 157 152 147 143 143 145 147 149 148 146 143 134 126 117 93 320 308 306 306 302 302 307 309 303 298
186 225 228 217 171 166 195 206 210 216 228 242 239 248 210 192 181 170 162 155 145 142 143 145 147 147 144 143 141 133 125 123 124 235 285 293 295 299 301 303 302 298 294 293
185 237 254 262 54 149 206 203 201 213 228 239 252 264 262 213 188 171 159 150 144 144 145 147 147 141 137 134 129 124 126 137 159 267 279 277 282 290 293 293 293 291 290 288
191 241 265 261 211 225 258 242 220 220 232 244 262 270 288 89 135 146 154 155 155 152 150 145 139 135 137 135 133 134 161 185 208 265 273 276 281 283 284 286 288 288 287 285
178 207 223 248 218 204 248 228 227 227 223 223 244 257 339 137 149 155 156 154 152 148 145 142 137 134 131 129 131 154 187 228 260 266 271 273 275 279 281 283 287 286 285 284
184 199 222 231 195 233 235 191 214 229 241 231 237 232 153 139 112 95 129 142 141 139 138 135 131 126 123 124 139 158 220 264 267 270 273 273 275 278 280 282 282 282 282 284
289 195 206 199 228 262 247 200 175 199 256 237 237 201 117 103 85 70 87 117 125 123 121 120 121 125 131 146 160 178 260 271 273 275 276 278 280 282 283 282 282 283 286 288
304 275 206 191 212 236 226 122 108 122 266 278 156 133 130 122 147 190 121 102 102 103 105 110 113 120 140 164 155 226 268 277 278 278 280 284 284 283 283 281 283 285 286 286
166 192 206 210 226 250 172 153 132 174 232 73 100 132 143 155 162 133 117 107 108 110 114 118 126 142 171 174 196 258 270 273 275 280 284 285 282 280 280 281 282 285 286 287
175 180 195 199 223 240 160 157 185 189 137 131 131 135 130 112 106 112 114 117 120 122 129 134 142 177 212 237 253 265 269 272 280 286 285 283 281 282 286 284 284 284 286 290
189 191 192 197 207 163 155 157 129 122 137 141 136 125 127 128 128 125 125 128 131 138 143 145 163 227 262 265 260 266 271 279 284 285 283 282 283 281 281 282 286 288 287 288
194 141 187 216 171 154 147 125 131 132 131 125 124 125 130 134 135 134 135 138 144 147 148 154 197 259 271 275 273 270 278 283 284 283 284 284 285 285 284 283 282 285 286 287
167 156 189 232 159 133 180 179 157 138 122 116 113 117 126 130 135 139 143 150 152 149 154 178 235 262 272 281 283 283 284 287 285 282 282 283 283 285 287 283 279 285 278 283
153 165 181 207 179 171 176 165 148 143 141 134 126 119 118 127 133 134 139 140 139 151 180 239 260 270 279 285 285 285 284 284 283 285 284 284 284 285 285 290 292 285 285 294
Height
1516 1520 1520 1516 1513 1512 1512 1515 1516 1510 1505 1507 1509 1508 1504 1502 1503 1505 1508 1511 1513 1515 1517 1517 1516 1516 1517 1518 1519 1520 1522 1524 1526 1527 1529 1530 1532 1532 1533 1533 1534 1534 1534 1534
1514 1516 1511 1509 1509 1511 1514 1518 1516 1510 1504 1507 1507 1504 1498 1497 1498 1501 1504 1508 1511 1515 1517 1517 1517 1517 1518 1518 1520 1521 1523 1524 1526 1527 1528 1530 1530 1531 1531 1532 1531 1531 1531 1531
1510 1508 1506 1508 1509 1513 1514 1517 1514 1512 1506 1505 1508 1506 1495 1494 1496 1499 1502 1506 1510 1513 1515 1517 1517 1518 1519 1519 1521 1522 1523 1525 1526 1527 1528 1529 1529 1530 1530 1530 1529 1529 1529 1528
1503 1502 1504 1508 1509 1510 1515 1508 1508 1509 1515 1514 1507 1516 1495 1494 1496 1498 1501 1504 1508 1512 1514 1516 1516 1518 1519 1520 1521 1523 1524 1525 1526 1527 1528 1528 1529 1529 1529 1528 1528 1527 1526 1526
1499 1499 1503 1507 1506 1506 1507 1507 1508 1510 1514 1516 1508 1511 1497 1492 1497 1497 1499 1502 1506 1510 1512 1514 1516 1517 1519 1520 1521 1523 1524 1525 1526 1527 1527 1527 1528 1528 1527 1527 1526 1525 1524 1523
1495 1495 1499 1501 1502 1504 1505 1509 1510 1511 1515 1522 1502 1506 1496 1489 1486 1491 1495 1499 1503 1508 1511 1513 1515 1516 1518 1520 1521 1522 1524 1524 1525 1526 1526 1526 1526 1526 1525 1524 1523 1523 1522 1520
1496 1495 1495 1498 1504 1506 1508 1515 1521 1522 1526 1516 1488 1492 1487 1473 1473 1480 1488 1495 1500 1505 1508 1511 1513 1515 1517 1519 1520 1522 1523 1523 1524 1525 1525 1524 1524 1523 1522 1522 1521 1520 1518 1517
1498 1497 1490 1493 1498 1503 1507 1508 1517 1516 1511 1498 1493 1493 1480 1472 1471 1476 1484 1491 1497 1502 1506 1508 1511 1513 1515 1517 1519 1520 1521 1522 1522 1523 1523 1522 1522 1521 1520 1519 1518 1516 1515 1514
1488 1489 1483 1486 1490 1496 1500 1503 1498 1505 1502 1503 1492 1479 1480 1474 1475 1478 1483 1488 1493 1498 1503 1506 1509 1511 1513 1515 1517 1518 1519 1520 1520 1520 1520 1520 1519 1518 1517 1516 1514 1513 1511 1510
1480 1486 1488 1490 1491 1493 1494 1493 1499 1506 1511 1510 1489 1480 1480 1481 1479 1479 1481 1485 1490 1495 1499 1503 1506 1509 1511 1513 1515 1516 1517 1518 1518 1518 1517 1517 1516 1515 1514 1512 1511 1509 1507 1505
1478 1486 1492 1494 1493 1492 1494 1495 1493 1494 1494 1502 1499 1485 1468 1470 1472 1476 1479 1482 1487 1491 1496 1500 1503 1506 1508 1511 1512 1514 1515 1515 1515 1515 1514 1514 1513 1511 1510 1508 1507 1505 1502 1500
1474 1480 1485 1486 1481 1481 1483 1486 1489 1497 1492 1489 1497 1490 1469 1468 1469 1473 1477 1480 1484 1488 1492 1496 1500 1503 1506 1508 1510 1511 1511 1512 1512 1512 1511 1510 1509 1508 1506 1504 1502 1500 1497 1495
1472 1478 1486 1489 1489 1485 1482 1480 1480 1483 1487 1490 1494 1485 1471 1469 1470 1472 1475 1478 1481 1485 1489 1493 1497 1500 1503 1505 1507 1508 1508 1509 1509 1508 1508 1507 1505 1504 1502 1500 1497 1495 1492 1488
1467 1472 1476 1479 1474 1475 1478 1476 1476 1482 1489 1488 1483 1475 1473 1470 1470 1471 1473 1476 1479 1483 1487 1491 1494 1497 1500 1502 1504 1505 1505 1505 1505 1505 1504 1502 1501 1499 1497 1494 1492 1489 1485 1482
1467 1471 1467 1464 1463 1465 1468 1470 1473 1477 1477 1480 1473 1469 1465 1464 1466 1467 1470 1474 1477 1481 1485 1488 1492 1495 1497 1499 1501 1502 1502 1502 1502 1501 1500 1498 1496 1494 1492 1489 1486 1482 1479 1475
1465 1469 1466 1466 1463 1465 1468 1466 1467 1470 1470 1470 1468 1466 1459 1460 1462 1465 1468 1471 1475 1478 1482 1486 1490 1492 1494 1496 1498 1499 1499 1498 1498 1496 1495 1493 1491 1489 1486 1483 1480 1476 1472 1468
1464 1467 1469 1472 1464 1468 1473 1464 1463 1462 1460 1462 1466 1461 1459 1460 1462 1464 1466 1469 1472 1476 1480 1484 1487 1490 1492 1493 1494 1495 1495 1495 1493 1492 1490 1488 1486 1483 1481 1477 1473 1469 1465 1461
1460 1464 1467 1470 1471 1481 1461 1450 1450 1453 1453 1453 1454 1454 1456 1459 1461 1464 1465 1468 1471 1475 1479 1482 1485 1487 1489 1490 1491 1491 1491 1490 1489 1487 1485 1483 1481 1478 1475 1471 1467 1463 1458 1454
1456 1460 1465 1472 1474 1466 1452 1449 1450 1453 1452 1448 1450 1451 1455 1457 1461 1465 1466 1468 1470 1474 1478 1481 1483 1485 1486 1487 1487 1487 1487 1486 1485 1483 1481 1478 1476 1472 1468 1464 1460 1456 1451 1447
1457 1458 1464 1468 1473 1471 1452 1448 1446 1450 1456 1448 1447 1451 1455 1458 1466 1466 1466 1468 1470 1473 1476 1479 1481 1482 1483 1484 1484 1484 1483 1482 1480 1478 1476 1473 1470 1466 1462 1458 1454 1449 1445 1439
1461 1461 1463 1466 1468 1458 1447 1447 1449 1460 1455 1449 1449 1450 1454 1457 1461 1462 1464 1467 1470 1473 1475 1477 1479 1480 1480 1480 1480 1479 1478 1477 1475 1473 1470 1467 1464 1460 1456 1451 1447 1443 1437 1432
1450 1455 1458 1459 1463 1458 1445 1447 1449 1448 1447 1448 1449 1451 1454 1457 1459 1461 1464 1467 1469 1471 1473 1475 1476 1477 1477 1477 1476 1475 1474 1472 1470 1467 1464 1461 1457 1453 1449 1445 1440 1435 1430 1424
1437 1439 1440 1443 1445 1438 1439 1441 1442 1444 1446 1447 1449 1451 1453 1456 1459 1462 1464 1466 1468 1470 1471 1472 1473 1474 1474 1473 1472 1471 1469 1467 1464 1461 1457 1454 1450 1446 1442 1438 1432 1428 1423 1417
1430 1430 1433 1435 1436 1436 1438 1439 1441 1443 1444 1446 1448 1450 1452 1455 1458 1461 1463 1465 1467 1468 1469 1470 1470 1470 1470 1469 1468 1466 1464 1461 1458 1454 1450 1447 1442 1438 1434 1430 1426 1421 1416 1410
1425 1430 1432 1433 1433 1435 1437 1438 1439 1441 1443 1444 1447 1449 1451 1454 1456 1459 1461 1463 1464 1466 1466 1467 1467 1466 1466 1465 1463 1461 1458 1455 1451 1447 1443 1439 1435 1431 1426 1422 1418 1413 1409 1405
1423 1427 1430 1431 1430 1432 1433 1435 1437 1439 1441 1443 1445 1448 1450 1453 1455 1457 1459 1461 1462 1463 1463 1464 1463 1462 1461 1459 1457 1455 1452 1449 1444 1440 1436 1432 1427 1423 1418 1413 1408 1404 1401 1396